Showing default

OPS 9333 (IDSCS 18), 2864

Orbit data source: Space-Track

OPS 9333 (IDSCS 18), 2864 is a payload satellite owned by SAMSO (US) in GEO that was launched on Sat, 01 Jul 1967 UTC via a TITAN IIIC launch vehicle from the Air Force Eastern Test Range (AFETR). Payloads include a variety of satellites, spacecraft, and rockets equipped with specific instruments for various scientific and technological missions. These include communications satellites like Starlink; space stations such as the ISS; scientific satellites like the Hubble; Earth observation satellites from companies like Planet Labs, Umbra, and HawkEye 360; GPS; miniature CubeSats for education and research; and military/defense satellites.

Loading next visibility...
OPS 9333 (IDSCS 18) details
Identifier
2864, 1967-066C
Orbit
GEO
Last TLE update1 week ago
Origin
Flag of USSAMSO (US)
ManufacturerPhilco-Ford WDL
MissionNon-operational Defense Communications
Bus & MotorIDCSP, Unknown motor
Mass45 kg wet, 45 kg dry
Launch date (UTC)
1967-07-01 (58 years ago)
Launch vehicle
TITAN IIIC
Launch site
Air Force Eastern Test Range (AFETR)
Object type
Payload
Rocket body
Debris
Shape & HBRPoly, 0.9 m
Radar Cross Section0.926 m², Medium (>0.1 m² and < 1m²)

Expand to show TLE details & history

TLE from 1 week ago
0 OPS 9333 (IDSCS 18)
1 02864U 67066C   25041.03588815 -.00000070  00000-0  00000-0 0  9993
2 02864   1.6785 114.8116 0060351 206.2369 163.2332  1.09785483126143
Epoch: 2025-02-10T00:51Z
Definitive object data (Epoch: 2025-02-10T00:51:40.736Z)
Latitude0.29389°
Longitude-28.77049°
Altitude33,544.162 km
Speed3.151 km/s
True Right ascension08h 18m 02s
True Declination0° 17' 37"
Sunlit
Object was in daylight at TLE epoch
Visualization TLE readout
Latitude-1.71465°
Longitude-128.5939°
Altitude33,204.959 km
Speed3.178 km/s
Apparent Right ascension01h 17m 46s
Apparent Declination-8° 16' 55"
Sunlit
Object is in daylight
Visualization observer readout
Local Sidereal Time04:28:02
Azimuth233.577° WSW
Elevation24.815°
Doppler factor1
Orbital elements
Apogee altitude33,554.754 km
Perigee altitude33,075.648 km
Semi-major axis39,693.338 km
Eccentricity0.0060351
Inclination1.6785°
RAAN114.8116°
Arg. of periapsis206.2369°
True anomaly163.43127°
Mean anomaly163.2332°
Eccentric anomaly163.33238°
Mean motion0.27445 °/min
BSTARUnknown
Orbital period1311.7 mins
Loading historical data...
2864 neighbors
Authenticating...
Loading maneuver chart data...
Loading historical data...
Loading historical data...
Loading historical data...
Loading historical data...
Loading historical data...
Loading historical data...
Loading historical data...

OPS 9333 (IDSCS 18) Visibility forecast

Observer location: undefined°, undefined

Span
Click to sort rows by Start time (UTC) header in descending order
Start Az.
Max El. time (UTC)
Max El. Az.
Max El.
End time (UTC)
End Az.
1440 mins2025-02-17 01:39:20.480Z233.563° WSW2025-02-18 01:39:20.480Z192.002° SSW33.324°2025-02-18 01:39:20.480Z192.002° SSW
|